7 * 24
多渠道服务支持
“HULIANWANG DIGUI-147”是中国于2026年1月19日发射的低轨通信卫星,隶属于互联网低轨卫星星座建设体系,旨在进一步丰富全球网络通信覆盖,弥补地面网络在偏远区域、海洋空域等场景的覆盖盲区,为全球用户提供更稳定的宽带互联网接入服务,推动天地一体化网络构建,支撑全球互联互通与数字经济发展。
中国
(CN)
| 数据来源 | 国际轨道数据 | AOE轨道数据 |
| 星历时间 | 2026-05-24T10:14:13+0800 1天前 查看轨道信息 | 2026-05-23T01:00:00+0800 2天前 查看轨道信息 |
| 半长轴 | 7527.434km | 7527.435km |
| 偏心率 | 0.0000863 | 0.0000603 |
| 轨道倾角 | 50.005° | 50.004° |
| 近地点辐角 | 20.639° | 11.180° |
| 升交点赤经 | 82.193° | 87.159° |
| 平近点角 | 339.451° | 197.351° |
| 近地点 | 1148.647km | 1148.844km |
| 远地点 | 1149.947km | 1149.752km |
| 周期 | 108.325分钟 | 108.325分钟 |
| 每日圈数 | 13.293287 | 13.293285 |